TimeEST,TemperatureF,Dew PointF,Humidity,Sea Level PressureIn,VisibilityMPH,Wind Direction,Wind SpeedMPH,Gust SpeedMPH,PrecipitationIn,Events,Conditions,WindDirDegrees,DateUTC
12:53 AM,37.9,32.0,79,29.95,9.0,South,6.9,-,N/A,,Overcast,190,2012-12-07 05:53:00
1:53 AM,37.9,32.0,79,29.94,9.0,SSW,6.9,-,N/A,,Overcast,210,2012-12-07 06:53:00
2:53 AM,39.0,32.0,76,29.94,9.0,SSW,6.9,-,N/A,,Overcast,210,2012-12-07 07:53:00
3:53 AM,39.9,33.1,77,29.94,9.0,SW,5.8,-,N/A,,Overcast,230,2012-12-07 08:53:00
4:53 AM,39.9,33.1,77,29.94,8.0,SW,5.8,-,N/A,,Overcast,230,2012-12-07 09:53:00
5:53 AM,39.0,35.1,86,29.94,4.0,SSW,4.6,-,0.01,Rain,Light Rain,210,2012-12-07 10:53:00
6:53 AM,39.0,36.0,89,29.95,3.0,SSW,4.6,-,0.04,Rain,Light Rain,210,2012-12-07 11:53:00
7:06 AM,39.2,35.6,87,29.93,3.0,SW,5.8,-,0.01,Rain,Light Rain,220,2012-12-07 12:06:00
7:43 AM,39.2,37.4,93,29.94,3.0,SW,4.6,-,0.04,Rain,Light Rain,230,2012-12-07 12:43:00
7:53 AM,39.0,37.0,93,29.96,2.0,SW,5.8,-,0.04,Rain,Light Rain,220,2012-12-07 12:53:00
8:35 AM,39.2,37.4,93,29.94,2.0,West,3.5,-,0.02,Rain,Light Rain,270,2012-12-07 13:35:00
8:46 AM,39.2,37.4,93,29.94,1.8,Calm,Calm,-,0.02,Rain,Light Rain,0,2012-12-07 13:46:00
8:53 AM,39.9,37.9,93,29.96,1.8,Calm,Calm,-,0.02,Rain,Light Rain,0,2012-12-07 13:53:00
9:53 AM,41.0,39.0,93,29.97,1.5,West,3.5,-,0.03,Rain,Light Rain,260,2012-12-07 14:53:00
10:31 AM,41.0,39.2,93,29.95,1.5,SW,4.6,-,0.00,,Overcast,230,2012-12-07 15:31:00
10:53 AM,41.0,39.0,93,29.97,1.8,SW,4.6,-,0.00,,Overcast,230,2012-12-07 15:53:00
11:32 AM,42.8,39.2,87,29.95,2.0,Calm,Calm,-,N/A,,Overcast,0,2012-12-07 16:32:00
11:53 AM,42.1,39.9,92,29.97,2.0,West,3.5,-,N/A,,Overcast,260,2012-12-07 16:53:00
12:12 PM,42.8,39.2,87,29.93,2.0,Calm,Calm,-,N/A,,Overcast,0,2012-12-07 17:12:00
12:53 PM,43.0,39.9,89,29.95,2.5,Calm,Calm,-,N/A,,Overcast,0,2012-12-07 17:53:00
1:00 PM,44.6,39.2,81,29.92,3.0,Calm,Calm,-,N/A,,Overcast,0,2012-12-07 18:00:00
1:22 PM,44.6,39.2,81,29.92,4.0,Calm,Calm,-,N/A,,Overcast,0,2012-12-07 18:22:00
1:53 PM,44.1,39.0,82,29.93,5.0,Calm,Calm,-,N/A,,Haze,0,2012-12-07 18:53:00
2:53 PM,45.0,37.9,76,29.92,5.0,Calm,Calm,-,N/A,,Haze,0,2012-12-07 19:53:00
3:53 PM,45.0,39.0,80,29.94,5.0,Calm,Calm,-,N/A,,Haze,0,2012-12-07 20:53:00
4:53 PM,44.1,39.0,82,29.94,4.0,Calm,Calm,-,N/A,,Haze,0,2012-12-07 21:53:00
5:53 PM,43.0,39.0,86,29.94,5.0,NE,4.6,-,N/A,,Overcast,40,2012-12-07 22:53:00
6:53 PM,42.1,39.0,89,29.94,4.0,Calm,Calm,-,N/A,,Overcast,0,2012-12-07 23:53:00
7:53 PM,41.0,39.0,93,29.94,4.0,Calm,Calm,-,N/A,,Overcast,0,2012-12-08 00:53:00
8:53 PM,41.0,37.9,89,29.94,3.0,ENE,3.5,-,N/A,,Overcast,60,2012-12-08 01:53:00
9:53 PM,42.1,39.0,89,29.91,3.0,ENE,4.6,-,N/A,,Overcast,70,2012-12-08 02:53:00
10:53 PM,41.0,39.0,93,29.91,3.0,ENE,4.6,-,0.00,Rain,Light Rain,60,2012-12-08 03:53:00
11:14 PM,41.0,39.2,93,29.89,3.0,NE,4.6,-,N/A,,Overcast,50,2012-12-08 04:14:00
11:23 PM,41.0,39.2,93,29.89,3.0,NE,4.6,-,N/A,,Overcast,40,2012-12-08 04:23:00
11:53 PM,41.0,37.9,89,29.91,3.0,NE,5.8,-,N/A,,Overcast,40,2012-12-08 04:53:00